Flag for Syria Weather past 2 weeks in Damascus, Syria

Now
91 °F

Scattered clouds.


Feels Like: 88 °F
Forecast: 55 / 91 °F
Wind: 12 mph from Southwest

Location: Damascus Int. Airport

Current Time: Aug 30, 2015 at 3:47:53 PM

Latest Report: Aug 30, 2015 at 3:00 PM


Visibility: N/A

Pressure: 29.83 "Hg (27.62 "Hg at 689m altitude)

Humidity: 24%

Dew point: 50 °F

Location of DamascusLocation

Historic Weather in Damascus — Graph

°F

Damascus temperature yesterday

Maximum temperature yesterday: 95 °F (at 3:00 PM)
Minimum temperature yesterday: 63 °F (at 5:00 AM)
Average temperature yesterday: 79 °F

Past Weeks' High & Low Weather Summary

 TemperatureHumidityPressure
High109 °F (Aug 18, 5:00 PM)94% (Aug 21, 6:00 AM)29.98 "Hg (Aug 21, 6:00 AM)
Low61 °F (Aug 27, 7:00 AM)9% (Aug 18, 5:00 PM)29.71 "Hg (Aug 23, 3:00 PM)
Average83 °F44%29.85 "Hg
* Reported Aug 15 2:00 PM — Aug 30 2:00 PM, Damascus, Weather by CustomWeather, © 2015

Note: Actual official high and low records may vary slightly from our data, if they occured in-between our weather recording intervals... More about our weather records

Advertising

Damascus weather history for previous 24 hours

 ConditionsComfort  
Time TempWeatherWind HumidityBarometerVisibility
2:00 PM
Sun, Aug 30
91 °FScattered clouds.3 mph20%29.86 "HgN/A
1:00 PM91 °FScattered clouds.6 mph21%29.89 "HgN/A
12:00 PM86 °FSunny.8 mph33%29.92 "Hg10 mi
11:00 AM86 °FSunny.5 mph33%29.92 "Hg10 mi
10:00 AM72 °FSunny.7 mph65%29.92 "Hg10 mi
9:00 AM75 °FMild.N/A61%29.92 "HgN/A
8:00 AM72 °FSunny.No wind69%29.92 "Hg10 mi
7:00 AM63 °FClear.5 mph77%29.89 "Hg10 mi
6:00 AM63 °FClear.5 mph73%29.89 "Hg10 mi
5:00 AM64 °FClear.No wind73%29.89 "Hg10 mi
4:00 AM68 °FClear.No wind73%29.89 "Hg10 mi
3:00 AM72 °FClear.5 mph69%29.89 "Hg10 mi
2:00 AM72 °FClear.7 mph69%29.89 "Hg10 mi
1:00 AM73 °FClear.7 mph61%29.89 "Hg10 mi
12:00 AM75 °FClear.12 mph54%29.89 "Hg10 mi
11:00 PM
Sat, Aug 29
75 °FClear.9 mph57%29.89 "Hg10 mi
10:00 PM79 °FClear.7 mph51%29.89 "Hg10 mi
9:00 PM81 °FClear.12 mph48%29.89 "Hg10 mi
8:00 PM82 °FSunny.14 mph42%29.86 "Hg10 mi
7:00 PM86 °FSunny.14 mph33%29.86 "Hg10 mi
6:00 PM91 °FSunny.14 mph24%29.80 "Hg10 mi
5:00 PM93 °FSunny.No wind16%29.86 "Hg10 mi
4:00 PM95 °FSunny.No wind14%29.86 "Hg10 mi
3:00 PM95 °FSunny.No wind15%29.89 "Hg10 mi
Weather by CustomWeather, © 2015

See weather overviewHow to use our weather pages